Time,TemperatureF,DewpointF,PressureIn,WindDirection,WindDirectionDegrees,WindSpeedMPH,WindSpeedGustMPH,Humidity,HourlyPrecipIn,Conditions,Clouds,dailyrainin,SoftwareType,DateUTC
2013-01-25 00:01:00,24.3,-1.4,29.40,South,180,1.1,0.0,32,0.00,,SKC,0.00,WeatherDisplay:10.37,2013-01-25 05:01:00,
2013-01-25 00:03:00,23.9,-2.4,29.40,SW,225,1.1,0.0,31,0.00,,SKC,0.00,WeatherDisplay:10.37,2013-01-25 05:03:00,
2013-01-25 00:08:00,23.9,-0.4,29.40,NW,315,1.1,0.0,34,0.00,,SKC,0.00,WeatherDisplay:10.37,2013-01-25 05:08:00,
2013-01-25 00:13:00,23.5,-0.8,29.41,NW,315,1.1,0.0,34,0.00,,SKC,0.00,WeatherDisplay:10.37,2013-01-25 05:13:00,
2013-01-25 00:18:00,23.5,-0.8,29.40,South,180,1.1,0.0,34,0.00,,SKC,0.00,WeatherDisplay:10.37,2013-01-25 05:18:00,
2013-01-25 00:23:00,23.4,-0.9,29.40,North,0,1.1,0.0,34,0.00,,SKC,0.00,WeatherDisplay:10.37,2013-01-25 05:23:00,
2013-01-25 00:28:00,23.2,-1.1,29.40,West,270,1.1,0.0,34,0.00,,SKC,0.00,WeatherDisplay:10.37,2013-01-25 05:28:00,
2013-01-25 00:33:00,23.2,-1.1,29.40,North,0,1.1,0.0,34,0.00,,SKC,0.00,WeatherDisplay:10.37,2013-01-25 05:33:00,
2013-01-25 00:38:00,22.8,-1.4,29.40,North,0,1.1,0.0,34,0.00,,SKC,0.00,WeatherDisplay:10.37,2013-01-25 05:38:00,
2013-01-25 00:43:00,22.8,-0.8,29.41,SW,225,1.1,0.0,35,0.00,,SKC,0.00,WeatherDisplay:10.37,2013-01-25 05:43:00,
2013-01-25 00:48:00,22.6,-0.4,29.41,NW,315,1.1,0.0,36,0.00,,SKC,0.00,WeatherDisplay:10.37,2013-01-25 05:48:00,
2013-01-25 00:53:00,22.5,0.1,29.41,South,180,0.0,0.0,37,0.00,,SKC,0.00,WeatherDisplay:10.37,2013-01-25 05:53:00,
2013-01-25 00:58:00,22.3,2.1,29.40,NW,315,1.1,0.0,41,0.00,,SKC,0.00,WeatherDisplay:10.37,2013-01-25 05:58:00,
2013-01-25 01:03:00,22.1,1.9,29.40,NW,315,1.1,0.0,41,0.00,,SKC,0.00,WeatherDisplay:10.37,2013-01-25 06:03:00,
2013-01-25 01:08:00,22.1,1.9,29.40,NW,315,1.1,0.0,41,0.00,,SKC,0.00,WeatherDisplay:10.37,2013-01-25 06:08:00,
2013-01-25 01:13:00,21.9,3.3,29.40,West,270,1.1,0.0,44,0.00,,SKC,0.00,WeatherDisplay:10.37,2013-01-25 06:13:00,
2013-01-25 01:18:00,21.7,3.6,29.41,North,0,1.1,0.0,45,0.00,,SKC,0.00,WeatherDisplay:10.37,2013-01-25 06:18:00,
2013-01-25 01:23:00,21.7,3.6,29.42,North,0,1.1,1.1,45,0.00,,SKC,0.00,WeatherDisplay:10.37,2013-01-25 06:23:00,
2013-01-25 01:28:00,21.9,3.8,29.42,South,180,1.1,0.0,45,0.00,,SKC,0.00,WeatherDisplay:10.37,2013-01-25 06:28:00,
2013-01-25 01:33:00,21.7,4.1,29.41,South,180,1.1,1.1,46,0.00,,SKC,0.00,WeatherDisplay:10.37,2013-01-25 06:33:00,
2013-01-25 01:38:00,21.7,5.5,29.41,North,0,1.1,0.0,49,0.00,,SKC,0.00,WeatherDisplay:10.37,2013-01-25 06:38:00,
2013-01-25 01:43:00,21.7,5.5,29.41,NW,315,1.1,0.0,49,0.00,,SKC,0.00,WeatherDisplay:10.37,2013-01-25 06:43:00,
2013-01-25 01:48:00,21.6,4.9,29.42,South,180,1.1,0.0,48,0.00,,SKC,0.00,WeatherDisplay:10.37,2013-01-25 06:48:00,
2013-01-25 01:53:00,21.4,4.7,29.41,North,0,1.1,0.0,48,0.00,,SKC,0.00,WeatherDisplay:10.37,2013-01-25 06:53:00,
2013-01-25 01:58:00,21.2,4.5,29.41,South,180,1.1,0.0,48,0.00,,SKC,0.00,WeatherDisplay:10.37,2013-01-25 06:58:00,
2013-01-25 02:03:00,21.0,4.8,29.42,North,0,1.1,0.0,49,0.00,,SKC,0.00,WeatherDisplay:10.37,2013-01-25 07:03:00,
2013-01-25 02:08:00,20.8,4.7,29.41,North,0,0.0,0.0,49,0.00,,SKC,0.00,WeatherDisplay:10.37,2013-01-25 07:08:00,
2013-01-25 02:13:00,20.7,5.8,29.42,South,180,1.1,0.0,52,0.00,,SKC,0.00,WeatherDisplay:10.37,2013-01-25 07:13:00,
2013-01-25 02:18:00,20.5,6.4,29.41,North,0,1.1,0.0,54,0.00,,SKC,0.00,WeatherDisplay:10.37,2013-01-25 07:18:00,
2013-01-25 02:23:00,20.5,6.4,29.42,North,0,0.0,0.0,54,0.00,,SKC,0.00,WeatherDisplay:10.37,2013-01-25 07:23:00,
2013-01-25 02:28:00,20.5,6.0,29.41,North,0,1.1,0.0,53,0.00,,SKC,0.00,WeatherDisplay:10.37,2013-01-25 07:28:00,
2013-01-25 02:33:00,20.5,6.0,29.41,North,0,1.1,0.0,53,0.00,,SKC,0.00,WeatherDisplay:10.37,2013-01-25 07:33:00,
2013-01-25 02:38:00,20.3,6.7,29.41,SE,135,1.1,0.0,55,0.00,,SKC,0.00,WeatherDisplay:10.37,2013-01-25 07:38:00,
2013-01-25 02:43:00,20.1,6.1,29.40,North,0,1.1,0.0,54,0.00,,SKC,0.00,WeatherDisplay:10.37,2013-01-25 07:43:00,
2013-01-25 02:48:00,20.1,6.1,29.40,South,180,1.1,1.1,54,0.00,,SKC,0.00,WeatherDisplay:10.37,2013-01-25 07:48:00,
2013-01-25 02:53:00,20.1,6.5,29.40,North,0,1.1,0.0,55,0.00,,SKC,0.00,WeatherDisplay:10.37,2013-01-25 07:53:00,
2013-01-25 02:58:00,19.9,5.9,29.40,North,0,0.0,0.0,54,0.00,,SKC,0.00,WeatherDisplay:10.37,2013-01-25 07:58:00,
2013-01-25 03:03:00,19.9,5.9,29.40,North,0,1.1,0.0,54,0.00,,SKC,0.00,WeatherDisplay:10.37,2013-01-25 08:03:00,
2013-01-25 03:08:00,19.8,5.8,29.39,South,180,1.1,0.0,54,0.00,,SKC,0.00,WeatherDisplay:10.37,2013-01-25 08:08:00,
2013-01-25 03:13:00,19.8,6.6,29.38,South,180,1.1,0.0,56,0.00,,SKC,0.00,WeatherDisplay:10.37,2013-01-25 08:13:00,
2013-01-25 03:19:00,19.8,6.6,29.38,North,0,2.3,0.0,56,0.00,,SKC,0.00,WeatherDisplay:10.37,2013-01-25 08:19:00,
2013-01-25 03:24:00,19.9,7.1,29.39,NE,45,1.1,0.0,57,0.00,,SKC,0.00,WeatherDisplay:10.37,2013-01-25 08:24:00,
2013-01-25 03:29:00,19.9,7.1,29.39,North,0,1.1,0.0,57,0.00,,SKC,0.00,WeatherDisplay:10.37,2013-01-25 08:29:00,
2013-01-25 03:34:00,19.9,7.1,29.39,South,180,1.1,1.1,57,0.00,,SKC,0.00,WeatherDisplay:10.37,2013-01-25 08:34:00,
2013-01-25 03:39:00,19.9,7.5,29.39,North,0,1.1,1.6,58,0.00,,SKC,0.00,WeatherDisplay:10.37,2013-01-25 08:39:00,
2013-01-25 03:44:00,19.9,7.5,29.38,South,180,1.1,0.0,58,0.00,,SKC,0.00,WeatherDisplay:10.37,2013-01-25 08:44:00,
2013-01-25 03:49:00,19.9,7.9,29.38,North,0,1.1,0.0,59,0.00,,SKC,0.00,WeatherDisplay:10.37,2013-01-25 08:49:00,
2013-01-25 03:54:00,19.8,7.7,29.38,North,0,0.0,0.0,59,0.00,,SKC,0.00,WeatherDisplay:10.37,2013-01-25 08:54:00,
2013-01-25 03:59:00,19.8,7.7,29.38,East,90,1.1,0.0,59,0.00,,SKC,0.00,WeatherDisplay:10.37,2013-01-25 08:59:00,
2013-01-25 04:04:00,19.8,7.7,29.37,East,90,1.1,0.0,59,0.00,,SKC,0.00,WeatherDisplay:10.37,2013-01-25 09:04:00,
2013-01-25 04:09:00,19.4,7.0,29.38,East,90,0.0,0.0,58,0.00,,SKC,0.00,WeatherDisplay:10.37,2013-01-25 09:09:00,
2013-01-25 04:14:00,19.2,6.8,29.38,East,90,0.0,0.0,58,0.00,,SKC,0.00,WeatherDisplay:10.37,2013-01-25 09:14:00,
2013-01-25 04:19:00,19.2,6.8,29.38,East,90,1.1,0.0,58,0.00,,SKC,0.00,WeatherDisplay:10.37,2013-01-25 09:19:00,
2013-01-25 04:24:00,19.0,7.0,29.38,South,180,2.3,0.0,59,0.00,,SKC,0.00,WeatherDisplay:10.37,2013-01-25 09:24:00,
2013-01-25 04:29:00,19.0,7.8,29.38,NW,315,1.1,0.0,61,0.00,,SKC,0.00,WeatherDisplay:10.37,2013-01-25 09:29:00,
2013-01-25 04:34:00,19.0,7.8,29.37,NW,315,0.0,0.0,61,0.00,,SKC,0.00,WeatherDisplay:10.37,2013-01-25 09:34:00,
2013-01-25 04:39:00,18.9,7.3,29.37,NW,315,0.0,0.0,60,0.00,,SKC,0.00,WeatherDisplay:10.37,2013-01-25 09:39:00,
2013-01-25 04:44:00,18.9,7.6,29.38,South,180,1.1,0.0,61,0.00,,SKC,0.00,WeatherDisplay:10.37,2013-01-25 09:44:00,
2013-01-25 04:49:00,18.7,6.3,29.37,North,0,0.0,0.0,58,0.00,,SKC,0.00,WeatherDisplay:10.37,2013-01-25 09:49:00,
2013-01-25 04:54:00,18.7,6.3,29.37,South,180,0.0,0.0,58,0.00,,SKC,0.00,WeatherDisplay:10.37,2013-01-25 09:54:00,
2013-01-25 04:59:00,18.7,6.7,29.37,South,180,0.0,0.0,59,0.00,,SKC,0.00,WeatherDisplay:10.37,2013-01-25 09:59:00,
2013-01-25 05:04:00,18.7,6.3,29.36,South,180,0.0,0.0,58,0.00,,SKC,0.00,WeatherDisplay:10.37,2013-01-25 10:04:00,
2013-01-25 05:09:00,18.7,7.4,29.36,South,180,0.0,0.0,61,0.00,,SKC,0.00,WeatherDisplay:10.37,2013-01-25 10:09:00,
2013-01-25 05:14:00,18.7,7.1,29.37,South,180,0.0,0.0,60,0.00,,SKC,0.00,WeatherDisplay:10.37,2013-01-25 10:14:00,
2013-01-25 05:19:00,18.7,6.3,29.36,South,180,0.0,0.0,58,0.00,,SKC,0.00,WeatherDisplay:10.37,2013-01-25 10:19:00,
2013-01-25 05:24:00,18.9,8.0,29.36,South,180,1.1,0.0,62,0.00,,SKC,0.00,WeatherDisplay:10.37,2013-01-25 10:24:00,
2013-01-25 05:29:00,19.0,8.1,29.36,South,180,1.1,0.0,62,0.00,,SKC,0.00,WeatherDisplay:10.37,2013-01-25 10:29:00,
2013-01-25 05:34:00,19.2,8.0,29.37,North,0,2.3,0.0,61,0.00,,SKC,0.00,WeatherDisplay:10.37,2013-01-25 10:34:00,
2013-01-25 05:39:00,19.8,8.5,29.36,SW,225,1.1,0.0,61,0.00,,SKC,0.00,WeatherDisplay:10.37,2013-01-25 10:39:00,
2013-01-25 05:44:00,19.9,8.3,29.35,South,180,3.5,3.5,60,0.00,,SKC,0.00,WeatherDisplay:10.37,2013-01-25 10:44:00,
2013-01-25 05:49:00,20.3,8.6,29.35,South,180,2.3,2.3,60,0.00,,SKC,0.00,WeatherDisplay:10.37,2013-01-25 10:49:00,
2013-01-25 05:54:00,20.5,8.8,29.34,SW,225,1.1,0.0,60,0.00,,SKC,0.00,WeatherDisplay:10.37,2013-01-25 10:54:00,
2013-01-25 05:59:00,20.7,8.2,29.36,SW,225,1.1,0.0,58,0.00,,SKC,0.00,WeatherDisplay:10.37,2013-01-25 10:59:00,
2013-01-25 06:04:00,20.8,8.4,29.35,South,180,1.1,0.0,58,0.00,,SKC,0.00,WeatherDisplay:10.37,2013-01-25 11:04:00,
2013-01-25 06:09:00,20.8,8.0,29.35,South,180,0.0,0.0,57,0.00,,SKC,0.00,WeatherDisplay:10.37,2013-01-25 11:09:00,
2013-01-25 06:14:00,21.2,8.3,29.34,South,180,0.0,0.0,57,0.00,,SKC,0.00,WeatherDisplay:10.37,2013-01-25 11:14:00,
2013-01-25 06:19:00,21.4,8.5,29.34,South,180,1.1,0.0,57,0.00,,SKC,0.00,WeatherDisplay:10.37,2013-01-25 11:19:00,
2013-01-25 06:24:00,21.6,8.3,29.33,NW,315,1.1,0.0,56,0.00,,SKC,0.00,WeatherDisplay:10.37,2013-01-25 11:24:00,
2013-01-25 06:29:00,21.9,8.6,29.34,South,180,2.2,2.2,56,0.00,,SKC,0.00,WeatherDisplay:10.37,2013-01-25 11:29:00,
2013-01-25 06:34:00,21.9,8.2,29.35,NE,45,1.1,0.0,55,0.00,,SKC,0.00,WeatherDisplay:10.37,2013-01-25 11:34:00,
2013-01-25 06:39:00,22.1,8.4,29.34,NE,45,0.0,0.0,55,0.00,,SKC,0.00,WeatherDisplay:10.37,2013-01-25 11:39:00,
2013-01-25 06:44:00,22.3,8.5,29.34,South,180,0.0,0.0,55,0.00,,SKC,0.00,WeatherDisplay:10.37,2013-01-25 11:44:00,
2013-01-25 06:49:00,22.5,7.9,29.33,SE,135,1.1,0.0,53,0.00,,SKC,0.00,WeatherDisplay:10.37,2013-01-25 11:49:00,
2013-01-25 06:54:00,22.6,8.1,29.33,North,0,1.1,0.0,53,0.00,,SKC,0.00,WeatherDisplay:10.37,2013-01-25 11:54:00,
2013-01-25 06:59:00,22.8,8.6,29.34,SW,225,1.1,0.0,54,0.00,,SKC,0.00,WeatherDisplay:10.37,2013-01-25 11:59:00,
2013-01-25 07:04:00,22.8,8.6,29.34,SW,225,1.1,0.0,54,0.00,,SKC,0.00,WeatherDisplay:10.37,2013-01-25 12:04:00,
2013-01-25 07:09:00,23.2,7.3,29.34,South,180,2.3,0.0,50,0.00,,SKC,0.00,WeatherDisplay:10.37,2013-01-25 12:09:00,
2013-01-25 07:14:00,23.4,5.6,29.35,South,180,3.5,3.5,46,0.00,,SKC,0.00,WeatherDisplay:10.37,2013-01-25 12:14:00,
2013-01-25 07:19:00,23.5,4.8,29.33,SE,135,1.1,0.0,44,0.00,,SKC,0.00,WeatherDisplay:10.37,2013-01-25 12:19:00,
2013-01-25 07:24:00,23.9,5.1,29.33,South,180,1.1,0.0,44,0.00,,SKC,0.00,WeatherDisplay:10.37,2013-01-25 12:24:00,
2013-01-25 07:29:00,23.9,5.6,29.33,South,180,2.3,2.3,45,0.00,,SKC,0.00,WeatherDisplay:10.37,2013-01-25 12:29:00,
2013-01-25 07:34:00,23.9,5.6,29.33,NE,45,2.3,0.0,45,0.00,,SKC,0.00,WeatherDisplay:10.37,2013-01-25 12:34:00,
2013-01-25 07:39:00,23.7,5.4,29.33,South,180,1.1,0.0,45,0.00,,SKC,0.00,WeatherDisplay:10.37,2013-01-25 12:39:00,
2013-01-25 07:45:00,23.7,5.4,29.34,West,270,1.1,0.0,45,0.00,,SKC,0.00,WeatherDisplay:10.37,2013-01-25 12:45:00,
2013-01-25 07:50:00,23.9,5.6,29.35,North,0,1.1,1.1,45,0.00,,SKC,0.00,WeatherDisplay:10.37,2013-01-25 12:50:00,
2013-01-25 07:55:00,23.9,5.6,29.35,SW,225,2.3,0.0,45,0.00,,SKC,0.00,WeatherDisplay:10.37,2013-01-25 12:55:00,
2013-01-25 08:00:00,23.9,6.1,29.33,South,180,1.1,1.6,46,0.00,,SKC,0.00,WeatherDisplay:10.37,2013-01-25 13:00:00,
2013-01-25 08:05:00,23.7,6.4,29.32,SSE,158,2.3,2.3,47,0.00,,SKC,0.00,WeatherDisplay:10.37,2013-01-25 13:05:00,
2013-01-25 08:10:00,23.5,5.8,29.32,SW,225,3.5,3.5,46,0.00,,SKC,0.00,WeatherDisplay:10.37,2013-01-25 13:10:00,
2013-01-25 08:15:00,23.4,6.1,29.33,South,180,2.3,0.0,47,0.00,,SKC,0.00,WeatherDisplay:10.37,2013-01-25 13:15:00,
2013-01-25 08:20:00,23.4,7.0,29.33,SE,135,2.3,2.3,49,0.00,,SKC,0.00,WeatherDisplay:10.37,2013-01-25 13:20:00,
2013-01-25 08:25:00,23.4,7.4,29.33,North,0,1.1,1.1,50,0.00,,SKC,0.00,WeatherDisplay:10.37,2013-01-25 13:25:00,
2013-01-25 08:30:00,23.4,8.7,29.33,NW,315,1.1,0.0,53,0.00,,SKC,0.00,WeatherDisplay:10.37,2013-01-25 13:30:00,
2013-01-25 08:35:00,23.4,9.6,29.33,SE,135,1.1,0.0,55,0.00,,SKC,0.00,WeatherDisplay:10.37,2013-01-25 13:35:00,
2013-01-25 08:40:00,23.2,9.4,29.33,NE,45,1.1,0.0,55,0.00,,SKC,0.00,WeatherDisplay:10.37,2013-01-25 13:40:00,
2013-01-25 08:45:00,23.2,10.2,29.33,South,180,2.3,0.0,57,0.00,,SKC,0.00,WeatherDisplay:10.37,2013-01-25 13:45:00,
2013-01-25 08:50:00,23.4,10.7,29.33,North,0,1.1,0.0,58,0.00,,SKC,0.00,WeatherDisplay:10.37,2013-01-25 13:50:00,
2013-01-25 08:55:00,23.4,11.9,29.32,West,270,1.1,0.0,61,0.00,,SKC,0.00,WeatherDisplay:10.37,2013-01-25 13:55:00,
2013-01-25 09:00:00,23.4,11.9,29.32,South,180,1.1,1.1,61,0.00,,SKC,0.00,WeatherDisplay:10.37,2013-01-25 14:00:00,
2013-01-25 09:05:00,23.4,11.9,29.31,South,180,1.1,1.1,61,0.00,,SKC,0.00,WeatherDisplay:10.37,2013-01-25 14:05:00,
2013-01-25 09:10:00,23.4,11.9,29.32,NE,45,1.1,0.0,61,0.00,,SKC,0.00,WeatherDisplay:10.37,2013-01-25 14:10:00,
2013-01-25 09:15:00,23.4,12.6,29.31,South,180,1.1,0.0,63,0.00,,SKC,0.00,WeatherDisplay:10.37,2013-01-25 14:15:00,
2013-01-25 09:20:00,23.5,12.8,29.32,SW,225,1.1,0.0,63,0.00,,SKC,0.00,WeatherDisplay:10.37,2013-01-25 14:20:00,
2013-01-25 09:25:00,23.7,13.3,29.32,South,180,1.1,0.0,64,0.00,,SKC,0.00,WeatherDisplay:10.37,2013-01-25 14:25:00,
2013-01-25 09:30:00,23.7,13.7,29.31,West,270,1.1,0.0,65,0.00,,SKC,0.00,WeatherDisplay:10.37,2013-01-25 14:30:00,
2013-01-25 09:35:00,23.7,13.7,29.32,North,0,1.1,0.0,65,0.00,,SKC,0.00,WeatherDisplay:10.37,2013-01-25 14:35:00,
2013-01-25 09:40:00,23.9,13.8,29.31,South,180,2.3,2.3,65,0.00,,SKC,0.00,WeatherDisplay:10.37,2013-01-25 14:40:00,
2013-01-25 09:45:00,23.9,13.8,29.32,NW,315,1.1,0.0,65,0.00,,SKC,0.00,WeatherDisplay:10.37,2013-01-25 14:45:00,
2013-01-25 09:50:00,23.7,13.7,29.30,SE,135,1.1,0.0,65,0.00,,SKC,0.00,WeatherDisplay:10.37,2013-01-25 14:50:00,
2013-01-25 09:55:00,23.9,14.2,29.30,South,180,1.1,0.0,66,0.00,,SKC,0.00,WeatherDisplay:10.37,2013-01-25 14:55:00,
2013-01-25 10:00:00,23.9,13.8,29.30,SW,225,1.1,0.0,65,0.00,,SKC,0.00,WeatherDisplay:10.37,2013-01-25 15:00:00,
2013-01-25 10:05:00,23.9,13.5,29.31,North,0,1.1,0.0,64,0.00,,SKC,0.00,WeatherDisplay:10.37,2013-01-25 15:05:00,
2013-01-25 10:10:00,23.9,13.5,29.31,North,0,2.3,2.3,64,0.00,,SKC,0.00,WeatherDisplay:10.37,2013-01-25 15:10:00,
2013-01-25 10:15:00,23.9,13.5,29.30,North,0,1.1,0.0,64,0.00,,SKC,0.00,WeatherDisplay:10.37,2013-01-25 15:15:00,
2013-01-25 10:20:00,23.9,13.8,29.31,SE,135,1.1,1.1,65,0.00,,SKC,0.00,WeatherDisplay:10.37,2013-01-25 15:20:00,
2013-01-25 10:25:00,24.1,13.7,29.29,North,0,1.1,0.0,64,0.00,,SKC,0.00,WeatherDisplay:10.37,2013-01-25 15:25:00,
2013-01-25 10:30:00,24.1,13.3,29.29,SW,225,1.1,0.0,63,0.00,,SKC,0.00,WeatherDisplay:10.37,2013-01-25 15:30:00,
2013-01-25 10:35:00,24.3,12.7,29.29,SW,225,3.5,3.5,61,0.00,,SKC,0.00,WeatherDisplay:10.37,2013-01-25 15:35:00,
2013-01-25 10:40:00,24.3,12.4,29.29,WSW,239,0.0,3.0,60,0.00,,SKC,0.00,WeatherDisplay:10.37,2013-01-25 15:40:00,
2013-01-25 10:45:00,24.4,13.3,29.30,NW,315,1.1,0.0,62,0.00,,SKC,0.00,WeatherDisplay:10.37,2013-01-25 15:45:00,
2013-01-25 10:50:00,24.4,12.9,29.29,WNW,292,2.3,2.3,61,0.00,,SKC,0.00,WeatherDisplay:10.37,2013-01-25 15:50:00,
2013-01-25 10:55:00,24.3,12.0,29.28,SW,225,1.1,0.0,59,0.00,,SKC,0.00,WeatherDisplay:10.37,2013-01-25 15:55:00,
2013-01-25 11:00:00,24.4,12.5,29.28,SW,222,0.0,2.0,60,0.00,,SKC,0.00,WeatherDisplay:10.37,2013-01-25 16:00:00,
2013-01-25 11:05:00,24.8,13.2,29.26,West,270,1.1,0.0,61,0.00,,SKC,0.00,WeatherDisplay:10.37,2013-01-25 16:05:00,
2013-01-25 11:10:00,25.0,13.4,29.26,WSW,246,0.0,2.0,61,0.00,,SKC,0.00,WeatherDisplay:10.37,2013-01-25 16:10:00,
2013-01-25 11:15:00,25.2,13.2,29.26,SW,225,1.1,0.0,60,0.00,,SKC,0.00,WeatherDisplay:10.37,2013-01-25 16:15:00,
2013-01-25 11:20:00,25.2,12.8,29.25,SW,225,3.5,3.5,59,0.00,,SKC,0.00,WeatherDisplay:10.37,2013-01-25 16:20:00,
2013-01-25 11:25:00,25.3,12.6,29.25,NE,45,1.1,0.0,58,0.00,,SKC,0.00,WeatherDisplay:10.37,2013-01-25 16:25:00,
2013-01-25 11:30:00,25.5,12.8,29.25,SW,225,2.3,2.3,58,0.00,,SKC,0.00,WeatherDisplay:10.37,2013-01-25 16:30:00,
2013-01-25 11:35:00,25.3,11.8,29.24,South,180,2.3,2.3,56,0.00,,SKC,0.00,WeatherDisplay:10.37,2013-01-25 16:35:00,
2013-01-25 11:40:00,25.3,11.8,29.24,WSW,238,1.0,3.0,56,0.00,,SKC,0.00,WeatherDisplay:10.37,2013-01-25 16:40:00,
2013-01-25 11:45:00,25.5,12.0,29.24,SW,225,3.5,0.0,56,0.00,,SKC,0.00,WeatherDisplay:10.37,2013-01-25 16:45:00,
2013-01-25 11:50:00,25.5,12.0,29.23,SW,231,0.0,3.0,56,0.00,,SKC,0.00,WeatherDisplay:10.37,2013-01-25 16:50:00,
2013-01-25 11:55:00,25.3,12.2,29.23,West,270,2.3,2.3,57,0.00,,SKC,0.00,WeatherDisplay:10.37,2013-01-25 16:55:00,
2013-01-25 12:00:00,25.2,11.6,29.21,North,0,2.3,2.3,56,0.00,,SKC,0.00,WeatherDisplay:10.37,2013-01-25 17:00:00,
2013-01-25 12:05:00,25.0,11.5,29.21,West,270,3.5,3.5,56,0.00,,SKC,0.00,WeatherDisplay:10.37,2013-01-25 17:05:00,
2013-01-25 12:10:00,24.8,10.9,29.21,West,270,3.5,3.5,55,0.00,,SKC,0.00,WeatherDisplay:10.37,2013-01-25 17:10:00,
2013-01-25 12:15:00,24.8,11.3,29.21,SE,135,1.1,1.1,56,0.00,,SKC,0.00,WeatherDisplay:10.37,2013-01-25 17:15:00,
2013-01-25 12:20:00,24.8,12.1,29.20,SW,225,1.1,1.1,58,0.00,,SKC,0.00,WeatherDisplay:10.37,2013-01-25 17:20:00,
2013-01-25 12:25:00,24.8,12.9,29.20,SW,225,2.3,2.3,60,0.00,,SKC,0.00,WeatherDisplay:10.37,2013-01-25 17:25:00,
2013-01-25 12:30:00,24.6,13.1,29.20,SW,225,1.1,0.0,61,0.00,,SKC,0.00,WeatherDisplay:10.37,2013-01-25 17:30:00,
2013-01-25 12:35:00,24.6,13.4,29.20,East,90,1.1,0.0,62,0.00,,SKC,0.00,WeatherDisplay:10.37,2013-01-25 17:35:00,
2013-01-25 12:40:00,24.6,14.2,29.19,South,180,1.1,0.0,64,0.00,,SKC,0.00,WeatherDisplay:10.37,2013-01-25 17:40:00,
2013-01-25 12:45:00,24.6,14.9,29.20,North,0,2.3,2.3,66,0.00,,SKC,0.00,WeatherDisplay:10.37,2013-01-25 17:45:00,
2013-01-25 12:50:00,24.6,15.6,29.19,West,270,1.1,0.0,68,0.00,,SKC,0.00,WeatherDisplay:10.37,2013-01-25 17:50:00,
2013-01-25 12:55:00,24.6,16.2,29.19,NW,315,1.1,0.0,70,0.00,,SKC,0.00,WeatherDisplay:10.37,2013-01-25 17:55:00,
2013-01-25 13:00:00,24.4,16.1,29.19,SW,225,1.1,0.0,70,0.00,,SKC,0.00,WeatherDisplay:10.37,2013-01-25 18:00:00,
2013-01-25 13:05:00,24.4,16.4,29.18,West,270,3.5,3.5,71,0.00,,SKC,0.00,WeatherDisplay:10.37,2013-01-25 18:05:00,
2013-01-25 13:10:00,24.3,16.2,29.18,SW,225,2.3,0.0,71,0.00,,SKC,0.00,WeatherDisplay:10.37,2013-01-25 18:10:00,
2013-01-25 13:15:00,24.1,16.4,29.17,South,180,2.3,2.3,72,0.00,,SKC,0.00,WeatherDisplay:10.37,2013-01-25 18:15:00,
2013-01-25 13:20:00,24.1,16.7,29.17,SW,225,1.1,0.0,73,0.00,,SKC,0.00,WeatherDisplay:10.37,2013-01-25 18:20:00,
2013-01-25 13:25:00,24.1,16.7,29.16,NW,315,2.3,2.3,73,0.00,,SKC,0.00,WeatherDisplay:10.37,2013-01-25 18:25:00,
2013-01-25 13:31:00,24.1,17.0,29.16,SW,225,3.5,0.0,74,0.00,,SKC,0.00,WeatherDisplay:10.37,2013-01-25 18:31:00,
2013-01-25 13:36:00,24.3,17.2,29.14,SW,225,3.5,0.0,74,0.00,,SKC,0.00,WeatherDisplay:10.37,2013-01-25 18:36:00,
2013-01-25 13:41:00,24.3,17.2,29.15,West,270,2.3,0.0,74,0.00,,SKC,0.00,WeatherDisplay:10.37,2013-01-25 18:41:00,
2013-01-25 13:46:00,24.3,17.2,29.13,SW,225,3.5,3.5,74,0.00,,SKC,0.00,WeatherDisplay:10.37,2013-01-25 18:46:00,
2013-01-25 13:51:00,24.4,17.6,29.13,SW,225,2.3,0.0,75,0.00,,SKC,0.00,WeatherDisplay:10.37,2013-01-25 18:51:00,
2013-01-25 13:56:00,24.6,17.8,29.12,East,90,2.3,2.3,75,0.00,,SKC,0.00,WeatherDisplay:10.37,2013-01-25 18:56:00,
2013-01-25 14:01:00,24.8,18.0,29.13,SW,225,2.3,2.3,75,0.00,,SKC,0.00,WeatherDisplay:10.37,2013-01-25 19:01:00,
2013-01-25 14:06:00,24.8,18.0,29.13,West,270,3.5,3.5,75,0.00,,SKC,0.00,WeatherDisplay:10.37,2013-01-25 19:06:00,
2013-01-25 14:11:00,24.8,18.0,29.13,West,270,1.1,1.1,75,0.00,,SKC,0.00,WeatherDisplay:10.37,2013-01-25 19:11:00,
2013-01-25 14:16:00,24.8,18.3,29.10,South,180,1.1,0.0,76,0.00,,SKC,0.00,WeatherDisplay:10.37,2013-01-25 19:16:00,
2013-01-25 14:21:00,24.8,18.3,29.11,SW,225,2.3,0.0,76,0.00,,SKC,0.00,WeatherDisplay:10.37,2013-01-25 19:21:00,
2013-01-25 14:26:00,24.8,18.6,29.11,South,180,1.1,1.1,77,0.00,,SKC,0.00,WeatherDisplay:10.37,2013-01-25 19:26:00,
2013-01-25 14:31:00,24.8,18.6,29.11,SW,225,1.1,1.6,77,0.00,,SKC,0.00,WeatherDisplay:10.37,2013-01-25 19:31:00,
2013-01-25 14:36:00,24.6,18.4,29.11,NW,315,1.1,0.0,77,0.00,,SKC,0.00,WeatherDisplay:10.37,2013-01-25 19:36:00,
2013-01-25 14:41:00,24.8,18.6,29.10,South,180,1.1,1.1,77,0.00,,SKC,0.00,WeatherDisplay:10.37,2013-01-25 19:41:00,
2013-01-25 14:46:00,24.8,18.6,29.10,North,0,2.3,0.0,77,0.00,,SKC,0.00,WeatherDisplay:10.37,2013-01-25 19:46:00,
2013-01-25 14:51:00,25.0,18.5,29.09,North,0,1.1,0.0,76,0.00,,SKC,0.00,WeatherDisplay:10.37,2013-01-25 19:51:00,
2013-01-25 14:56:00,25.0,18.5,29.09,NW,315,1.1,0.0,76,0.00,,SKC,0.00,WeatherDisplay:10.37,2013-01-25 19:56:00,
2013-01-25 15:01:00,24.8,18.3,29.09,South,180,3.5,0.0,76,0.00,,SKC,0.00,WeatherDisplay:10.37,2013-01-25 20:01:00,
2013-01-25 15:06:00,24.8,18.3,29.09,South,180,1.1,0.0,76,0.00,,SKC,0.00,WeatherDisplay:10.37,2013-01-25 20:06:00,
2013-01-25 15:11:00,24.8,18.3,29.08,West,270,1.1,0.0,76,0.00,,SKC,0.00,WeatherDisplay:10.37,2013-01-25 20:11:00,
2013-01-25 15:16:00,25.0,18.5,29.08,SW,225,1.1,0.0,76,0.00,,SKC,0.00,WeatherDisplay:10.37,2013-01-25 20:16:00,
2013-01-25 15:21:00,24.8,18.3,29.08,NW,315,1.1,1.1,76,0.00,,SKC,0.00,WeatherDisplay:10.37,2013-01-25 20:21:00,
2013-01-25 15:26:00,24.8,18.3,29.08,SE,135,1.1,0.0,76,0.00,,SKC,0.00,WeatherDisplay:10.37,2013-01-25 20:26:00,
2013-01-25 15:31:00,24.6,18.1,29.08,SW,225,1.1,0.0,76,0.00,,SKC,0.00,WeatherDisplay:10.37,2013-01-25 20:31:00,
2013-01-25 15:36:00,24.6,18.4,29.07,South,180,1.6,0.0,77,0.00,,SKC,0.00,WeatherDisplay:10.37,2013-01-25 20:36:00,
2013-01-25 15:41:00,24.6,18.4,29.06,East,90,1.1,0.0,77,0.00,,SKC,0.00,WeatherDisplay:10.37,2013-01-25 20:41:00,
2013-01-25 15:46:00,24.8,18.6,29.07,SW,225,1.1,0.0,77,0.00,,SKC,0.00,WeatherDisplay:10.37,2013-01-25 20:46:00,
2013-01-25 15:51:00,24.6,18.4,29.07,NE,45,1.1,0.0,77,0.00,,SKC,0.00,WeatherDisplay:10.37,2013-01-25 20:51:00,
2013-01-25 15:56:00,24.6,18.4,29.07,South,180,1.1,0.0,77,0.00,,SKC,0.00,WeatherDisplay:10.37,2013-01-25 20:56:00,
2013-01-25 16:01:00,24.6,18.4,29.07,South,180,1.1,0.0,77,0.00,,SKC,0.00,WeatherDisplay:10.37,2013-01-25 21:01:00,
2013-01-25 16:06:00,24.8,18.6,29.07,South,180,1.1,1.6,77,0.00,,SKC,0.00,WeatherDisplay:10.37,2013-01-25 21:06:00,
2013-01-25 16:11:00,24.6,18.4,29.07,SW,225,1.1,1.1,77,0.00,,SKC,0.00,WeatherDisplay:10.37,2013-01-25 21:11:00,
2013-01-25 16:16:00,24.6,18.7,29.07,South,180,2.3,2.3,78,0.00,,SKC,0.00,WeatherDisplay:10.37,2013-01-25 21:16:00,
2013-01-25 16:21:00,24.6,18.7,29.06,South,180,1.1,0.0,78,0.00,,SKC,0.00,WeatherDisplay:10.37,2013-01-25 21:21:00,
2013-01-25 16:26:00,24.6,19.0,29.06,South,180,2.3,0.0,79,0.00,,SKC,0.00,WeatherDisplay:10.37,2013-01-25 21:26:00,
2013-01-25 16:31:00,24.6,19.3,29.06,SE,135,1.1,1.1,80,0.00,,SKC,0.00,WeatherDisplay:10.37,2013-01-25 21:31:00,
2013-01-25 16:36:00,24.8,19.5,29.06,South,180,1.1,0.0,80,0.00,,SKC,0.00,WeatherDisplay:10.37,2013-01-25 21:36:00,
2013-01-25 16:41:00,24.8,19.8,29.06,SW,225,1.1,0.0,81,0.00,,SKC,0.00,WeatherDisplay:10.37,2013-01-25 21:41:00,
2013-01-25 16:46:00,24.8,19.8,29.06,SW,225,1.1,0.0,81,0.00,,SKC,0.00,WeatherDisplay:10.37,2013-01-25 21:46:00,
2013-01-25 16:51:00,24.8,19.8,29.06,SW,225,1.1,0.0,81,0.00,,SKC,0.00,WeatherDisplay:10.37,2013-01-25 21:51:00,
2013-01-25 16:56:00,24.8,19.8,29.06,North,0,3.5,3.5,81,0.00,,SKC,0.00,WeatherDisplay:10.37,2013-01-25 21:56:00,
2013-01-25 17:01:00,24.8,19.8,29.06,SW,225,1.1,0.0,81,0.00,,SKC,0.00,WeatherDisplay:10.37,2013-01-25 22:01:00,
2013-01-25 17:06:00,25.0,20.0,29.06,SE,135,1.1,0.0,81,0.00,,SKC,0.00,WeatherDisplay:10.37,2013-01-25 22:06:00,
2013-01-25 17:11:00,25.0,20.3,29.07,North,0,1.1,0.0,82,0.00,,SKC,0.00,WeatherDisplay:10.37,2013-01-25 22:11:00,
2013-01-25 17:16:00,25.0,20.3,29.05,West,270,1.1,0.0,82,0.00,,SKC,0.00,WeatherDisplay:10.37,2013-01-25 22:16:00,
2013-01-25 17:21:00,25.0,20.3,29.06,East,90,1.1,0.0,82,0.00,,SKC,0.00,WeatherDisplay:10.37,2013-01-25 22:21:00,
2013-01-25 17:26:00,25.0,20.0,29.06,South,180,1.1,0.0,81,0.00,,SKC,0.00,WeatherDisplay:10.37,2013-01-25 22:26:00,
2013-01-25 17:31:00,25.0,20.0,29.06,South,180,1.1,0.0,81,0.00,,SKC,0.00,WeatherDisplay:10.37,2013-01-25 22:31:00,
2013-01-25 17:36:00,25.0,20.0,29.06,South,180,1.1,0.0,81,0.00,,SKC,0.00,WeatherDisplay:10.37,2013-01-25 22:36:00,
2013-01-25 17:41:00,25.0,20.3,29.06,SE,135,1.1,0.0,82,0.00,,SKC,0.00,WeatherDisplay:10.37,2013-01-25 22:41:00,
2013-01-25 17:46:00,24.8,20.1,29.06,SW,225,1.1,0.0,82,0.00,,SKC,0.00,WeatherDisplay:10.37,2013-01-25 22:46:00,
2013-01-25 17:51:00,24.8,20.1,29.06,SW,225,1.1,0.0,82,0.00,,SKC,0.00,WeatherDisplay:10.37,2013-01-25 22:51:00,
2013-01-25 17:56:00,25.0,20.3,29.06,SE,135,1.1,0.0,82,0.00,,SKC,0.00,WeatherDisplay:10.37,2013-01-25 22:56:00,
2013-01-25 18:01:00,24.8,20.1,29.06,SE,135,0.0,0.0,82,0.00,,SKC,0.00,WeatherDisplay:10.37,2013-01-25 23:01:00,
2013-01-25 18:06:00,24.8,20.1,29.06,SE,135,1.1,0.0,82,0.00,,SKC,0.00,WeatherDisplay:10.37,2013-01-25 23:06:00,
2013-01-25 18:11:00,24.8,20.1,29.06,SE,135,1.1,0.0,82,0.00,,SKC,0.00,WeatherDisplay:10.37,2013-01-25 23:11:00,
2013-01-25 18:16:00,24.8,20.4,29.06,SE,135,1.1,0.0,83,0.00,,SKC,0.00,WeatherDisplay:10.37,2013-01-25 23:16:00,
2013-01-25 18:21:00,24.8,20.4,29.06,South,180,1.1,0.0,83,0.00,,SKC,0.00,WeatherDisplay:10.37,2013-01-25 23:21:00,
2013-01-25 18:26:00,24.8,20.4,29.06,SW,225,0.0,0.0,83,0.00,,SKC,0.00,WeatherDisplay:10.37,2013-01-25 23:26:00,
2013-01-25 18:31:00,24.8,20.4,29.06,South,180,1.1,0.0,83,0.00,,SKC,0.00,WeatherDisplay:10.37,2013-01-25 23:31:00,
2013-01-25 18:36:00,24.8,20.4,29.05,South,180,1.1,1.1,83,0.00,,SKC,0.00,WeatherDisplay:10.37,2013-01-25 23:36:00,
2013-01-25 18:41:00,24.8,20.4,29.06,SW,225,1.1,0.0,83,0.00,,SKC,0.00,WeatherDisplay:10.37,2013-01-25 23:41:00,
2013-01-25 18:46:00,25.0,20.5,29.06,West,270,1.1,0.0,83,0.00,,SKC,0.00,WeatherDisplay:10.37,2013-01-25 23:46:00,
2013-01-25 18:51:00,25.0,20.5,29.06,SE,135,1.1,0.0,83,0.00,,SKC,0.00,WeatherDisplay:10.37,2013-01-25 23:51:00,
2013-01-25 18:56:00,25.0,20.5,29.06,North,0,1.1,0.0,83,0.00,,SKC,0.00,WeatherDisplay:10.37,2013-01-25 23:56:00,
2013-01-25 19:01:00,25.2,20.7,29.06,South,180,1.1,0.0,83,0.00,,SKC,0.00,WeatherDisplay:10.37,2013-01-26 00:01:00,
2013-01-25 19:07:00,25.2,20.7,29.06,South,180,1.1,0.0,83,0.00,,SKC,0.00,WeatherDisplay:10.37,2013-01-26 00:07:00,
2013-01-25 19:12:00,25.2,21.0,29.05,South,180,2.3,2.3,84,0.00,,SKC,0.00,WeatherDisplay:10.37,2013-01-26 00:12:00,
2013-01-25 19:17:00,25.2,21.0,29.05,South,180,2.3,2.3,84,0.00,,SKC,0.00,WeatherDisplay:10.37,2013-01-26 00:17:00,
2013-01-25 19:22:00,25.3,21.2,29.06,South,180,1.1,0.0,84,0.00,,SKC,0.00,WeatherDisplay:10.37,2013-01-26 00:22:00,
2013-01-25 19:27:00,25.3,21.2,29.06,South,180,1.1,0.0,84,0.00,,SKC,0.00,WeatherDisplay:10.37,2013-01-26 00:27:00,
2013-01-25 19:32:00,25.3,21.2,29.06,SE,135,1.1,0.0,84,0.00,,SKC,0.00,WeatherDisplay:10.37,2013-01-26 00:32:00,
2013-01-25 19:37:00,25.3,21.2,29.05,South,180,0.0,0.0,84,0.00,,SKC,0.00,WeatherDisplay:10.37,2013-01-26 00:37:00,
2013-01-25 19:42:00,25.3,21.5,29.05,South,180,3.5,3.5,85,0.00,,SKC,0.00,WeatherDisplay:10.37,2013-01-26 00:42:00,
2013-01-25 19:47:00,25.3,21.5,29.05,North,0,1.1,0.0,85,0.00,,SKC,0.00,WeatherDisplay:10.37,2013-01-26 00:47:00,
2013-01-25 19:52:00,25.3,21.5,29.05,South,180,1.1,0.0,85,0.00,,SKC,0.00,WeatherDisplay:10.37,2013-01-26 00:52:00,
2013-01-25 19:57:00,25.3,21.5,29.05,South,180,1.1,0.0,85,0.00,,SKC,0.00,WeatherDisplay:10.37,2013-01-26 00:57:00,
2013-01-25 20:02:00,25.5,21.6,29.06,North,0,1.1,0.0,85,0.00,,SKC,0.00,WeatherDisplay:10.37,2013-01-26 01:02:00,
2013-01-25 20:07:00,25.5,21.6,29.05,SW,225,1.1,0.0,85,0.00,,SKC,0.00,WeatherDisplay:10.37,2013-01-26 01:07:00,
2013-01-25 20:12:00,25.5,21.6,29.06,West,270,1.1,0.0,85,0.00,,SKC,0.00,WeatherDisplay:10.37,2013-01-26 01:12:00,
2013-01-25 20:17:00,25.5,21.6,29.05,West,270,1.1,0.0,85,0.00,,SKC,0.00,WeatherDisplay:10.37,2013-01-26 01:17:00,
2013-01-25 20:22:00,25.5,21.6,29.05,South,180,1.1,0.0,85,0.00,,SKC,0.00,WeatherDisplay:10.37,2013-01-26 01:22:00,
2013-01-25 20:27:00,25.7,21.8,29.05,SW,225,1.1,0.0,85,0.00,,SKC,0.00,WeatherDisplay:10.37,2013-01-26 01:27:00,
2013-01-25 20:32:00,25.7,21.8,29.05,South,180,0.0,0.0,85,0.00,,SKC,0.00,WeatherDisplay:10.37,2013-01-26 01:32:00,
2013-01-25 20:37:00,25.7,21.8,29.05,SW,225,1.1,0.0,85,0.00,,SKC,0.00,WeatherDisplay:10.37,2013-01-26 01:37:00,
2013-01-25 20:42:00,25.7,21.8,29.05,South,180,1.1,0.0,85,0.00,,SKC,0.00,WeatherDisplay:10.37,2013-01-26 01:42:00,
2013-01-25 20:47:00,25.7,21.8,29.05,SW,225,1.1,0.0,85,0.00,,SKC,0.00,WeatherDisplay:10.37,2013-01-26 01:47:00,
2013-01-25 20:52:00,25.7,21.8,29.05,South,180,1.1,0.0,85,0.00,,SKC,0.00,WeatherDisplay:10.37,2013-01-26 01:52:00,
2013-01-25 20:57:00,25.9,22.0,29.05,SW,225,1.1,0.0,85,0.00,,SKC,0.00,WeatherDisplay:10.37,2013-01-26 01:57:00,
2013-01-25 21:02:00,25.7,21.8,29.04,SW,225,1.1,0.0,85,0.00,,SKC,0.00,WeatherDisplay:10.37,2013-01-26 02:02:00,
2013-01-25 21:07:00,25.7,21.8,29.05,SW,225,1.1,0.0,85,0.00,,SKC,0.00,WeatherDisplay:10.37,2013-01-26 02:07:00,
2013-01-25 21:12:00,25.7,21.5,29.05,SE,135,1.1,0.0,84,0.00,,SKC,0.00,WeatherDisplay:10.37,2013-01-26 02:12:00,
2013-01-25 21:17:00,25.7,21.5,29.05,SE,135,1.1,0.0,84,0.00,,SKC,0.00,WeatherDisplay:10.37,2013-01-26 02:17:00,
2013-01-25 21:22:00,25.7,21.5,29.05,South,180,1.1,0.0,84,0.00,,SKC,0.00,WeatherDisplay:10.37,2013-01-26 02:22:00,
2013-01-25 21:27:00,25.7,21.5,29.04,South,180,2.3,0.0,84,0.00,,SKC,0.00,WeatherDisplay:10.37,2013-01-26 02:27:00,
2013-01-25 21:32:00,25.7,21.8,29.05,North,0,2.3,0.0,85,0.00,,SKC,0.00,WeatherDisplay:10.37,2013-01-26 02:32:00,
2013-01-25 21:37:00,25.7,21.8,29.05,South,180,1.1,0.0,85,0.00,,SKC,0.00,WeatherDisplay:10.37,2013-01-26 02:37:00,
2013-01-25 21:42:00,25.9,22.0,29.05,South,180,1.1,0.0,85,0.00,,SKC,0.00,WeatherDisplay:10.37,2013-01-26 02:42:00,
2013-01-25 21:47:00,25.9,22.0,29.05,North,0,1.1,0.0,85,0.00,,SKC,0.00,WeatherDisplay:10.37,2013-01-26 02:47:00,
2013-01-25 21:52:00,25.9,22.0,29.05,South,180,0.0,0.0,85,0.00,,SKC,0.00,WeatherDisplay:10.37,2013-01-26 02:52:00,
2013-01-25 21:57:00,25.9,22.0,29.04,South,180,1.1,0.0,85,0.00,,SKC,0.00,WeatherDisplay:10.37,2013-01-26 02:57:00,
2013-01-25 22:02:00,25.9,22.0,29.05,North,0,0.0,0.0,85,0.00,,SKC,0.00,WeatherDisplay:10.37,2013-01-26 03:02:00,
2013-01-25 22:07:00,25.9,22.0,29.04,SE,135,1.1,0.0,85,0.00,,SKC,0.00,WeatherDisplay:10.37,2013-01-26 03:07:00,
2013-01-25 22:12:00,25.9,22.0,29.05,South,180,1.1,0.0,85,0.00,,SKC,0.00,WeatherDisplay:10.37,2013-01-26 03:12:00,
2013-01-25 22:17:00,25.9,22.0,29.04,South,180,1.1,0.0,85,0.00,,SKC,0.00,WeatherDisplay:10.37,2013-01-26 03:17:00,
2013-01-25 22:22:00,25.9,22.0,29.04,SW,225,1.1,0.0,85,0.00,,SKC,0.00,WeatherDisplay:10.37,2013-01-26 03:22:00,
2013-01-25 22:27:00,26.1,21.9,29.05,North,0,0.0,0.0,84,0.00,,SKC,0.00,WeatherDisplay:10.37,2013-01-26 03:27:00,
2013-01-25 22:32:00,26.1,21.9,29.04,South,180,0.0,0.0,84,0.00,,SKC,0.00,WeatherDisplay:10.37,2013-01-26 03:32:00,
2013-01-25 22:37:00,26.1,21.9,29.04,North,0,0.0,0.0,84,0.00,,SKC,0.00,WeatherDisplay:10.37,2013-01-26 03:37:00,
2013-01-25 22:42:00,26.1,21.9,29.04,SW,225,1.1,0.0,84,0.00,,SKC,0.00,WeatherDisplay:10.37,2013-01-26 03:42:00,
2013-01-25 22:47:00,26.1,21.9,29.04,North,0,1.1,0.0,84,0.00,,SKC,0.00,WeatherDisplay:10.37,2013-01-26 03:47:00,
2013-01-25 22:52:00,26.1,21.9,29.04,South,180,0.0,0.0,84,0.00,,SKC,0.00,WeatherDisplay:10.37,2013-01-26 03:52:00,
2013-01-25 22:57:00,26.1,21.9,29.04,South,180,0.0,0.0,84,0.00,,SKC,0.00,WeatherDisplay:10.37,2013-01-26 03:57:00,
2013-01-25 23:02:00,26.1,21.9,29.05,NE,45,0.0,0.0,84,0.00,,SKC,0.00,WeatherDisplay:10.37,2013-01-26 04:02:00,
2013-01-25 23:07:00,26.2,22.1,29.05,South,180,0.0,0.0,84,0.00,,SKC,0.00,WeatherDisplay:10.37,2013-01-26 04:07:00,
2013-01-25 23:12:00,26.2,22.1,29.05,SE,135,0.0,0.0,84,0.00,,SKC,0.00,WeatherDisplay:10.37,2013-01-26 04:12:00,
2013-01-25 23:17:00,26.2,22.1,29.05,South,180,1.1,0.0,84,0.00,,SKC,0.00,WeatherDisplay:10.37,2013-01-26 04:17:00,
2013-01-25 23:22:00,26.2,22.1,29.05,South,180,1.1,0.0,84,0.00,,SKC,0.00,WeatherDisplay:10.37,2013-01-26 04:22:00,
2013-01-25 23:27:00,26.2,22.1,29.05,SW,225,1.1,0.0,84,0.00,,SKC,0.00,WeatherDisplay:10.37,2013-01-26 04:27:00,
2013-01-25 23:32:00,26.2,22.1,29.05,South,180,1.1,0.0,84,0.00,,SKC,0.00,WeatherDisplay:10.37,2013-01-26 04:32:00,
2013-01-25 23:37:00,26.2,22.1,29.05,South,180,0.0,0.0,84,0.00,,SKC,0.00,WeatherDisplay:10.37,2013-01-26 04:37:00,
2013-01-25 23:42:00,26.2,22.1,29.05,South,180,0.0,0.0,84,0.00,,SKC,0.00,WeatherDisplay:10.37,2013-01-26 04:42:00,
2013-01-25 23:47:00,26.2,22.1,29.04,South,180,1.1,0.0,84,0.00,,SKC,0.00,WeatherDisplay:10.37,2013-01-26 04:47:00,
2013-01-25 23:52:00,26.4,22.2,29.05,North,0,0.0,0.0,84,0.00,,SKC,0.00,WeatherDisplay:10.37,2013-01-26 04:52:00,
2013-01-25 23:57:00,26.4,22.2,29.04,North,0,0.0,0.0,84,0.00,,SKC,0.00,WeatherDisplay:10.37,2013-01-26 04:57:00,